Flag for U.S.A. Weather past 2 weeks in Scottsdale, Arizona, U.S.A.

Now
100 °F

Partly sunny.


Feels Like: 100 °F
Forecast: 83 / 97 °F
Wind: 7 mph from Southeast

Location: Scottsdale Airport

Current Time: Jul 13, 2014 at 5:34:13 PM

Latest Report: Jul 13, 2014 at 4:53 PM


Visibility: 10 mi

Pressure: 29.74 "Hg

Humidity: 25%

Dew point: 58 °F

Location of ScottsdaleLocation

Historic Weather in Scottsdale — Graph

°F

Scottsdale temperature yesterday

Maximum temperature yesterday: 105 °F (at 3:53 PM)
Minimum temperature yesterday: 86 °F (at 3:53 AM)
Average temperature yesterday: 95 °F

Past Weeks' High & Low Weather Summary

 TemperatureHumidityPressure
High106 °F (Jun 30, 3:53 PM)74% (Jul 8, 11:53 PM)29.98 "Hg (Jul 8, 11:53 PM)
Low79 °F (Jul 8, 11:53 PM)9% (Jul 1, 11:53 AM)29.64 "Hg (Jun 30, 7:53 PM)
Average94 °F29%29.79 "Hg
* Reported Jun 28 3:53 PM — Jul 13 3:53 PM, Scottsdale, Weather by CustomWeather, © 2014

Note: Actual official high and low records may vary slightly from our data, if they occured in-between our weather recording intervals... More about our weather records

Advertising

Scottsdale weather history for previous 24 hours

 ConditionsComfort  
Time TempWeatherWind HumidityBarometerVisibility
3:53 PM
Jul 13
106 °FSunny.5 mph19%29.72 "Hg10 mi
2:53 PM105 °FSunny.5 mph20%29.75 "Hg10 mi
1:53 PM103 °FSunny.5 mph22%29.77 "Hg10 mi
12:53 PM103 °FSunny.10 mph21%29.80 "Hg10 mi
11:53 AM101 °FSunny.7 mph24%29.82 "Hg10 mi
10:53 AM99 °FSunny.3 mph27%29.83 "Hg10 mi
9:53 AM97 °FSunny.3 mph28%29.84 "Hg10 mi
8:53 AM95 °FSunny.No wind30%29.85 "Hg10 mi
7:53 AM93 °FSunny.No wind33%29.85 "Hg10 mi
6:53 AM89 °FSunny.No wind41%29.85 "Hg10 mi
5:53 AM88 °FSunny.No wind40%29.84 "Hg10 mi
4:53 AM89 °FClear.3 mph38%29.82 "Hg10 mi
3:53 AM89 °FClear.5 mph39%29.80 "Hg10 mi
2:53 AM90 °FClear.5 mph35%29.79 "Hg10 mi
1:53 AM91 °FClear.8 mph34%29.80 "Hg10 mi
12:53 AM94 °FClear.No wind29%29.81 "Hg10 mi
11:53 PM
Jul 12
94 °FClear.7 mph29%29.81 "Hg10 mi
10:53 PM95 °FPassing clouds.3 mph27%29.82 "Hg10 mi
9:53 PM95 °FPassing clouds.7 mph30%29.81 "Hg10 mi
8:53 PM96 °FPartly cloudy.3 mph29%29.77 "Hg10 mi
7:53 PM96 °FClear.7 mph30%29.75 "Hg10 mi
6:53 PM96 °FSunny.10 mph30%29.73 "Hg10 mi
5:53 PM104 °FScattered clouds.5 mph16%29.73 "Hg10 mi
Weather by CustomWeather, © 2014

See weather overviewHow to use our weather pages